Home > Weather > Wolfsburg > Past weeks

Flag for Germany Weather for the Past 2 Weeks in Wolfsburg, Lower Saxony, Germany

Now
36 °F

Broken clouds.


Feels Like: 29 °F
Forecast: 33 / 42 °F
Wind: 8 mph from Southwest

Location: Braunschweig Wolfsburg

Current Time: Feb 12, 2016 at 11:12:54 AM

Latest Report: Feb 12, 2016 at 10:20 AM


Visibility: N/A

Pressure: 29.62 "Hg

Humidity: 87%

Dew point: 32 °F

Location of WolfsburgLocation

Historic Weather in Wolfsburg — Graph

°F

Wolfsburg Temperature Yesterday

Maximum temperature yesterday: 45 °F (at 1:50 PM)
Minimum temperature yesterday: 36 °F (at 6:20 PM)
Average temperature yesterday: 40 °F

High & Low Weather Summary for the Past Weeks

 TemperatureHumidityPressure
High55 °F (Feb 7, 11:50 AM)100% (Feb 1, 7:20 AM)30.24 "Hg (Feb 1, 7:20 AM)
Low32 °F (Feb 12, 6:20 AM)51% (Feb 7, 11:50 AM)28.85 "Hg (Feb 9, 7:20 PM)
Average44 °F77%29.75 "Hg
* Reported Jan 28 9:20 AM — Feb 12 9:50 AM, Wolfsburg, Weather by CustomWeather, © 2016

Note: Actual official high and low records may vary slightly from our data, if they occured in-between our weather recording intervals... More about our weather records

Advertising

Wolfsburg Weather History for the Previous 24 Hours

 ConditionsComfort  
Time TempWeatherWind HumidityBarometerVisibility
9:50 AM
Fri, Feb 12
36 °FPartly sunny.8 mph87%29.62 "HgN/A
9:20 AM36 °FScattered clouds.8 mph87%29.62 "HgN/A
8:50 AM36 °FScattered clouds.3 mph87%29.62 "HgN/A
8:20 AM34 °FPartly sunny.7 mph93%29.62 "HgN/A
7:50 AM32 °FPartly sunny.6 mph93%29.62 "HgN/A
7:20 AM34 °FPassing clouds.7 mph87%29.62 "HgN/A
6:50 AM34 °FPassing clouds.7 mph87%29.62 "HgN/A
6:20 AM32 °FPassing clouds.6 mph93%29.62 "HgN/A
4:20 AM36 °FPassing clouds.6 mph87%29.62 "HgN/A
3:50 AM36 °FPartly cloudy.7 mph87%29.62 "HgN/A
9:50 PM
Thu, Feb 11
36 °FPassing clouds.5 mph87%29.62 "HgN/A
9:20 PM37 °FPassing clouds.6 mph87%29.62 "HgN/A
8:50 PM37 °FPassing clouds.7 mph87%29.62 "HgN/A
8:20 PM37 °FSprinkles. Partly cloudy.9 mph87%29.62 "HgN/A
7:50 PM37 °FPassing clouds.6 mph81%29.62 "HgN/A
7:20 PM37 °FPassing clouds.8 mph81%29.62 "HgN/A
6:50 PM37 °FClear.8 mph81%29.62 "Hg10 mi
6:20 PM36 °FClear.7 mph87%29.59 "Hg10 mi
5:50 PM37 °FPassing clouds.7 mph87%29.59 "HgN/A
5:20 PM37 °FMore clouds than sun.10 mph93%29.59 "HgN/A
4:50 PM43 °FSprinkles. Broken clouds.13 mph66%29.59 "HgN/A
4:20 PM43 °FScattered showers. Partly sunny.14 mph71%29.59 "HgN/A
3:50 PM43 °FScattered showers. Scattered clouds.14 mph71%29.59 "HgN/A
3:20 PM41 °FScattered showers. Broken clouds.10 mph76%29.59 "HgN/A
2:50 PM39 °FScattered clouds.8 mph87%29.59 "HgN/A
2:20 PM43 °FSprinkles. Mostly cloudy.18 mph71%29.59 "HgN/A
1:50 PM45 °FPartly sunny.16 mph61%29.56 "HgN/A
1:20 PM43 °FPartly sunny.15 mph71%29.56 "HgN/A
12:50 PM43 °FPartly sunny.15 mph71%29.56 "HgN/A
12:20 PM43 °FBroken clouds.17 mph71%29.56 "HgN/A
11:50 AM43 °FBroken clouds.17 mph76%29.56 "HgN/A
11:20 AM43 °FScattered clouds.16 mph71%29.56 "HgN/A
Weather by CustomWeather, © 2016

See weather overviewHow to use our weather pages